Location: �couen
(49.0206°N, 2.3831°E)
Time: 20:14:18
(UTC+00:00)

Cosmos 2227 - Pass Details

Date: 29 May 2022
Orbit: 833 x 863 km, 71.0° (Epoch: 25 June)

Event Time Altitude Azimuth Distance (km) Brightness Sun altitude
Rises 21:59:56 0° 323° (NW) 3,447 9.1 -15.3°
Reaches altitude 10° 22:02:45 10° 311° (NW) 2,508 7.7 -15.5°
Maximum altitude 22:07:25 26° 257° (WSW) 1,634 5.8 -15.8°
Enters shadow 22:11:45 11° 205° (SSW) 2,399 6.2 -16.1°
